FW9306 Weather Reports


Display with metric or nautical units.
time (UTC)temp
F
wind
direction
speed
MPH
gust
MPH
rain 1hr
in
rain 24hr
in
rain mn
in
humidity
%
barometer
mb
20260504010702 84 258 12.0 14.0 0.00 0.00 0.00 15 1009.4
20260504010157 84 259 16.0 21.0 0.00 0.00 0.00 15 1009.4
20260504005654 84 238 13.0 16.0 0.00 0.00 0.00 15 1009.5
20260504005151 84 219 12.0 13.0 0.00 0.00 0.00 15 1009.2
20260504004649 84 217 15.0 18.0 0.00 0.00 0.00 15 1009.6
20260504004146 84 247 16.0 18.0 0.00 0.00 0.00 15 1009.5
20260504003642 85 270 13.0 15.0 0.00 0.00 0.00 16 1009.5
20260504003139 85 215 14.0 16.0 0.00 0.00 0.00 15 1009.5
20260504002636 85 249 16.0 17.0 0.00 0.00 0.00 15 1009.3
20260504002134 85 243 15.0 17.0 0.00 0.00 0.00 16 1009.3
20260504001631 86 246 11.0 11.0 0.00 0.00 0.00 15 1009.3
20260504001127 86 226 15.0 21.0 0.00 0.00 0.00 15 1009.2
20260504000625 86 250 17.0 20.0 0.00 0.00 0.00 15 1009.3
20260504000122 86 253 18.0 20.0 0.00 0.00 0.00 15 1009.3
20260503235620 87 239 17.0 20.0 0.00 0.00 0.00 16 1009.4
20260503235116 86 234 18.0 23.0 0.00 0.00 0.00 16 1009.2
20260503234614 87 231 15.0 17.0 0.00 0.00 0.00 16 1009.2
20260503234112 87 226 11.0 13.0 0.00 0.00 0.00 15 1009.2
20260503233609 87 247 13.0 15.0 0.00 0.00 0.00 16 1008.9
20260503233104 87 223 14.0 18.0 0.00 0.00 0.00 16 1009.1
20260503232602 88 249 10.0 11.0 0.00 0.00 0.00 16 1009.1
20260503232059 87 227 14.0 17.0 0.00 0.00 0.00 17 1009.3
20260503231557 88 252 14.0 16.0 0.00 0.00 0.00 17 1008.9
20260503231053 88 248 10.0 13.0 0.00 0.00 0.00 17 1009.1
20260503230550 88 263 7.0 9.0 0.00 0.00 0.00 17 1009.2
20260503230047 88 231 10.0 11.0 0.00 0.00 0.00 17 1009.2
20260503225544 88 226 13.0 16.0 0.00 0.00 0.00 17 1009.2
20260503225039 88 197 9.0 11.0 0.00 0.00 0.00 17 1009.5
20260503224537 88 243 8.0 10.0 0.00 0.00 0.00 17 1009.5
20260503224034 88 236 8.0 11.0 0.00 0.00 0.00 18 1009.6
20260503223532 89 303 7.0 8.0 0.00 0.00 0.00 17 1009.4
20260503223027 88 242 7.0 9.0 0.00 0.00 0.00 17 1009.5
20260503222526 88 236 9.0 10.0 0.00 0.00 0.00 17 1009.7
20260503222024 88 258 10.0 11.0 0.00 0.00 0.00 17 1009.5
20260503221522 87 233 9.0 11.0 0.00 0.00 0.00 17 1009.5
20260503221019 87 235 10.0 11.0 0.00 0.00 0.00 17 1009.6
20260503220515 87 216 5.0 7.0 0.00 0.00 0.00 18 1009.6
20260503220012 87 231 8.0 9.0 0.00 0.00 0.00 18 1009.7
20260503215509 87 225 5.0 6.0 0.00 0.00 0.00 18 1009.8
20260503215006 87 209 4.0 5.0 0.00 0.00 0.00 19 1009.7
20260503214504 87 200 8.0 9.0 0.00 0.00 0.00 19 1009.9
20260503214000 86 227 8.0 9.0 0.00 0.00 0.00 20 1010.2
20260503213459 86 190 0.0 0.0 0.00 0.00 0.00 24 1010.3
20260503212955 87 187 6.0 8.0 0.00 0.00 0.00 23 1010.4
20260503212453 87 216 2.0 2.0 0.00 0.00 0.00 24 1010.5
20260503211950 87 238 6.0 7.0 0.00 0.00 0.00 25 1010.5
20260503211447 87 241 14.0 17.0 0.00 0.00 0.00 26 1010.1
20260503210942 87 198 2.0 3.0 0.00 0.00 0.00 25 1010.6
20260503210439 87 217 5.0 7.0 0.00 0.00 0.00 26 1010.7
20260503205934 87 178 5.0 6.0 0.00 0.00 0.00 26 1010.6
20260503205431 86 140 2.0 2.0 0.00 0.00 0.00 26 1010.7
20260503204927 86 128 1.0 1.0 0.00 0.00 0.00 27 1010.8
20260503204425 85 196 1.0 2.0 0.00 0.00 0.00 27 1010.8
20260503203922 86 74 6.0 8.0 0.00 0.00 0.00 27 1011.1
20260503203419 86 119 2.0 7.0 0.00 0.00 0.00 27 1011.0
20260503202916 86 171 1.0 1.0 0.00 0.00 0.00 27 1011.5
20260503202414 85 183 3.0 3.0 0.00 0.00 0.00 27 1011.5
20260503201912 85 167 3.0 5.0 0.00 0.00 0.00 27 1011.4
20260503201409 86 155 5.0 7.0 0.00 0.00 0.00 27 1011.6
20260503200907 85 152 3.0 5.0 0.00 0.00 0.00 28 1011.5
20260503200402 84 92 8.0 10.0 0.00 0.00 0.00 29 1011.7
20260503195859 84 128 5.0 8.0 0.00 0.00 0.00 28 1011.6
20260503195356 84 123 5.0 8.0 0.00 0.00 0.00 28 1011.7
20260503194853 84 124 2.0 5.0 0.00 0.00 0.00 28 1011.4
20260503194349 84 118 1.0 2.0 0.00 0.00 0.00 28 1011.9
20260503193845 84 122 3.0 6.0 0.00 0.00 0.00 28 1012.1
20260503193341 84 187 5.0 7.0 0.00 0.00 0.00 28 1012.1
20260503192837 83 195 2.0 3.0 0.00 0.00 0.00 28 1011.8
20260503192333 85 199 6.0 7.0 0.00 0.00 0.00 26 1012.1
20260503191830 85 159 1.0 2.0 0.00 0.00 0.00 25 1012.1
20260503191327 84 190 8.0 9.0 0.00 0.00 0.00 25 1012.2
20260503190823 85 207 5.0 6.0 0.00 0.00 0.00 27 1012.2
20260503190321 84 208 5.0 7.0 0.00 0.00 0.00 29 1012.4
20260503185818 82 136 3.0 5.0 0.00 0.00 0.00 31 1012.4
20260503185313 82 96 6.0 8.0 0.00 0.00 0.00 31 1012.5
20260503184808 82 112 3.0 3.0 0.00 0.00 0.00 32 1012.7
20260503184304 81 153 5.0 8.0 0.00 0.00 0.00 32 1012.9
20260503183800 82 192 2.0 5.0 0.00 0.00 0.00 32 1013.1
20260503183258 81 150 4.0 5.0 0.00 0.00 0.00 32 1013.3
20260503182755 82 144 8.0 10.0 0.00 0.00 0.00 32 1013.4
20260503182254 81 221 5.0 7.0 0.00 0.00 0.00 32 1013.2
20260503181750 81 204 4.0 7.0 0.00 0.00 0.00 33 1013.3
20260503181247 81 228 3.0 10.0 0.00 0.00 0.00 32 1013.2
20260503180743 82 148 5.0 8.0 0.00 0.00 0.00 32 1013.6
20260503180242 81 227 4.0 6.0 0.00 0.00 0.00 33 1013.4
20260503175738 80 141 7.0 11.0 0.00 0.00 0.00 33 1013.4
20260503175237 80 93 2.0 5.0 0.00 0.00 0.00 33 1013.6
20260503174732 80 226 3.0 5.0 0.00 0.00 0.00 34 1013.6
20260503174230 80 86 8.0 11.0 0.00 0.00 0.00 33 1013.7
20260503173725 79 154 6.0 8.0 0.00 0.00 0.00 34 1013.7
20260503173221 80 189 3.0 5.0 0.00 0.00 0.00 33 1013.8
20260503172718 80 181 1.0 2.0 0.00 0.00 0.00 33 1013.7
20260503172215 79 191 11.0 15.0 0.00 0.00 0.00 34 1013.6
20260503171711 79 156 4.0 5.0 0.00 0.00 0.00 34 1014.0
20260503171209 79 191 10.0 11.0 0.00 0.00 0.00 33 1014.0
20260503170705 79 260 7.0 13.0 0.00 0.00 0.00 34 1014.1
20260503170203 79 203 8.0 9.0 0.00 0.00 0.00 34 1014.0
20260503160124 78 120 3.0 7.0 0.00 0.00 0.00 35 1014.1
20260503150554 76 109 3.0 3.0 0.00 0.00 0.00 37 1014.1
20260503130944 72 127 1.0 1.0 0.00 0.00 0.00 40 1013.3
20260503130442 71 154 3.0 3.0 0.00 0.00 0.00 40 1013.1
20260503110332 73 153 1.0 2.0 0.00 0.00 0.00 39 1012.9
20260503100258 74 190 5.0 8.0 0.00 0.00 0.00 37 1012.8
20260503090218 71 171 0.0 0.0 0.00 0.00 0.00 39 1013.3
20260503081145 73 157 0.0 1.0 0.00 0.00 0.00 37 1013.2
20260503080641 73 131 1.0 2.0 0.00 0.00 0.00 36 1013.4
20260503080138 72 182 0.0 1.0 0.00 0.00 0.00 37 1013.3
20260503072615 74 17 1.0 2.0 0.00 0.00 0.00 36 1013.3
20260503072112 73 18 2.0 2.0 0.00 0.00 0.00 36 1013.4
20260503071608 73 192 0.0 0.0 0.00 0.00 0.00 36 1013.6
20260503071105 74 211 0.0 0.0 0.00 0.00 0.00 35 1013.4
20260503070602 73 135 0.0 0.0 0.00 0.00 0.00 36 1013.8
20260503055020 76 32 3.0 3.0 0.00 0.00 0.00 34 1012.5
20260503054516 76 119 1.0 1.0 0.00 0.00 0.00 33 1012.7
20260503054014 76 42 1.0 2.0 0.00 0.00 0.00 33 1012.7
20260503053512 76 150 2.0 2.0 0.00 0.00 0.00 33 1012.5
20260503053009 76 167 0.0 0.0 0.00 0.00 0.00 32 1012.7
20260503052506 76 154 2.0 2.0 0.00 0.00 0.00 33 1012.8
20260503052002 76 14 2.0 2.0 0.00 0.00 0.00 32 1012.8
20260503051458 76 6 3.0 3.0 0.00 0.00 0.00 32 1012.7
20260503050955 76 168 1.0 2.0 0.00 0.00 0.00 32 1012.7
20260503050451 76 179 0.0 0.0 0.00 0.00 0.00 31 1012.5
20260503045949 76 41 4.0 5.0 0.00 0.00 0.00 33 1012.5
20260503045446 76 2 3.0 3.0 0.00 0.00 0.00 32 1012.5
20260503044943 77 214 1.0 1.0 0.00 0.00 0.00 33 1012.2
20260503044440 75 359 5.0 5.0 0.00 0.00 0.00 33 1012.4
20260503043937 76 187 1.0 1.0 0.00 0.00 0.00 35 1012.4
20260503043433 76 153 0.0 1.0 0.00 0.00 0.00 36 1012.4
20260503042930 77 63 1.0 1.0 0.00 0.00 0.00 31 1012.0
20260503042427 77 20 1.0 1.0 0.00 0.00 0.00 31 1012.0
20260503041923 77 44 1.0 1.0 0.00 0.00 0.00 32 1012.1
20260503041420 77 174 0.0 0.0 0.00 0.00 0.00 31 1011.9
20260503040918 77 185 0.0 0.0 0.00 0.00 0.00 31 1011.7
20260503040415 78 136 1.0 1.0 0.00 0.00 0.00 30 1011.6
20260503035912 78 143 1.0 1.0 0.00 0.00 0.00 30 1011.5
20260503035409 78 133 1.0 2.0 0.00 0.00 0.00 30 1011.7
20260503034906 78 126 2.0 2.0 0.00 0.00 0.00 30 1011.4
20260503034404 78 79 2.0 2.0 0.00 0.00 0.00 30 1011.6
20260503033901 79 89 2.0 2.0 0.00 0.00 0.00 29 1011.6
20260503033358 78 56 4.0 5.0 0.00 0.00 0.00 29 1011.7
20260503032856 79 87 4.0 6.0 0.00 0.00 0.00 29 1011.5
20260503032355 79 84 5.0 6.0 0.00 0.00 0.00 28 1011.5
20260503031851 79 34 3.0 3.0 0.00 0.00 0.00 29 1011.4
20260503031349 79 57 3.0 5.0 0.00 0.00 0.00 29 1011.5
20260503030845 79 125 1.0 1.0 0.00 0.00 0.00 29 1011.5
20260503030342 79 112 2.0 2.0 0.00 0.00 0.00 28 1011.2
20260503025838 80 75 2.0 2.0 0.00 0.00 0.00 28 1011.1
20260503025336 80 93 2.0 2.0 0.00 0.00 0.00 28 1011.0
20260503024833 81 123 2.0 2.0 0.00 0.00 0.00 27 1011.0
20260503024329 81 126 2.0 2.0 0.00 0.00 0.00 27 1010.8
20260503023826 81 119 3.0 5.0 0.00 0.00 0.00 27 1011.0
20260503023324 81 104 3.0 5.0 0.00 0.00 0.00 26 1010.8
20260503022820 81 140 5.0 7.0 0.00 0.00 0.00 26 1011.0
20260503022320 82 175 3.0 5.0 0.00 0.00 0.00 26 1011.0
20260503021817 82 126 5.0 7.0 0.00 0.00 0.00 26 1010.8
20260503021313 82 140 5.0 8.0 0.00 0.00 0.00 26 1010.8
20260503020811 82 97 6.0 8.0 0.00 0.00 0.00 26 1011.0
20260503020309 82 104 6.0 7.0 0.00 0.00 0.00 26 1010.9
20260503015804 82 60 3.0 6.0 0.00 0.00 0.00 26 1010.7
20260503015305 82 137 6.0 7.0 0.00 0.00 0.00 25 1011.1
20260503014757 82 219 4.0 5.0 0.00 0.00 0.00 25 1011.1
20260503014255 83 142 0.0 1.0 0.00 0.00 0.00 25 1011.2
20260503013752 83 145 3.0 3.0 0.00 0.00 0.00 24 1010.8
20260503013250 83 156 1.0 1.0 0.00 0.00 0.00 25 1011.0
20260503012747 83 191 2.0 2.0 0.00 0.00 0.00 25 1010.9
20260503012244 83 146 1.0 1.0 0.00 0.00 0.00 25 1011.2
20260503011741 83 115 4.0 5.0 0.00 0.00 0.00 25 1010.8
20260503011238 84 161 0.0 0.0 0.00 0.00 0.00 23 1011.0